User: anonymous   Login
Location: downtown San Diego
(32.7310°N, 117.1990°W)
Time: 19:12:22
(UTC-07:00)
Language:

Cosmos 1269 Rocket - Orbit

View from above orbital plane
View from above orbital plane
View from above satellite
View from above satellite

Ground track
Ground track

The orbit data is extracted from the following two-line orbital elements,

1 12443U 81041B   19111.87932397  .00000033  00000-0  20685-4 0  9990
2 12443  74.0569  14.2556 0005211 300.4685  59.5952 14.34713787984646
Epoch (UTC): 21 April 2019 21:06:13
Eccentricity: 0.0005211
inclination: 74.0569°
perigee height: 772 km
apogee height: 780 km
right ascension of ascending node: 14.2556°
argument of perigee: 300.4685°
revolutions per day: 14.34713787
mean anomaly at epoch: 59.5952°
orbit number at epoch: 98464

The dashed part of the orbit path shows where the satellite is in the earth's shadow,  

DLR